Tracking 18624 objects as of 26-April-2017
HD Live streaming from Space Station
objects crossing your sky now

SCOUT G-1 DEB

Track SCOUT G-1 DEB now!
10-day predictions


NORAD ID: 22707
Int'l Code: 1993-041D
Perigee: 714.6 km
Apogee: 927.6 km
Inclination: 90.1 °
Period: 101.2 minutes
Semi major axis: 7192 km
RCS: 0.041 m2 (small)
Launch date: June 25, 1993
Source: United States (US)
Launch site: AIR FORCE WESTERN TEST RANGE (AFWTR)

Note: This is SATELLITE DEBRIS
Your satellite tracking list
Your tracking list is empty





NASA's NSSDC Master Catalog

Two Line Element Set (TLE):
1 22707U 93041D   17114.82425273 +.00000238 +00000-0 +88768-4 0  9996
2 22707 090.0865 248.5900 0148118 079.1480 282.6342 14.23371967233983
Source of the keplerian elements: AFSPC